Location: Aulus
(42.7909°N, 1.3399°E)
Time: 16:56:12
(UTC+00:00)

Okean O Rocket - Pass Details

Date: 19 May 2025
Orbit: 614 x 636 km, 98.0° (Epoch: 12 June)

Event Time Altitude Azimuth Distance (km) Brightness Sun altitude
Exits shadow 21:34:41 - 219° (SW) 2,302 4.3 -19.8°
Reaches altitude 10° 21:35:47 10° 229° (SW) 2,000 4.1 -19.9°
Maximum altitude 21:38:32 16° 268° (W) 1,623 4.1 -20.2°
Drops below altitude 10° 21:41:17 10° 307° (NW) 2,002 5.2 -20.5°
Sets 21:44:13 0° 329° (NNW) 2,909 6.6 -20.8°
